Regional Weather Roundup
Issued by NWS

Home | Current Version | Previous Version | Graphics & Text | Print | Product List | Glossary On
Versions: 1 2 3 4 5 6 7 8 9 10 11 12 13 14 15 16 17 18 19 20 21 22 23 24 25 26 27 28 29 30 31 32 33 34 35 36 37 38 39 40 41 42 43 44 45 46 47 48 49 50
000
ASUS45 KSLC 270410
RWRUT

UTAH REGIONAL WEATHER ROUNDUP
NATIONAL WEATHER SERVICE SALT LAKE CITY UT
1000 PM MDT TUE AUG 26 2014

UTZ001>011-023>025-270500-

NORTHERN UTAH

CITY           SKY/WX    TMP DP  RH WIND       PRES   REMARKS
HILL AFB       NOT AVBL
LOGAN          MOCLDY    65  50  58 SE13      30.16R
OGDEN          CLOUDY    65  49  56 SE6       30.18R
PROVO AIRPORT  CLOUDY    61  54  77 CALM      30.20S
SALT LAKE CITY LGT RAIN  60  55  83 S10       30.17R
VERNAL         CLOUDY    60  49  66 N9        30.24R
WENDOVER       CLOUDY    63  52  67 E7        30.18R
HEBER CITY     CLOUDY    59  46  63 SW10      30.21R
WEST JORDAN    CLOUDY    61  59  94 W10       30.19R

$$

UTZ012>022-026-027-270500-

SOUTHERN UTAH

CITY           SKY/WX    TMP DP  RH WIND       PRES   REMARKS
BRYCE CANYON   LGT RAIN  47  44  90 NW8       30.35R
CEDAR CITY     LGT RAIN  55  49  80 SE5       30.24F
MILFORD        CLOUDY    57  52  83 NW9       30.19F
MOAB/CYNLANDS  PTCLDY    66  51  58 CALM      30.18R
PRICE          CLOUDY    60  48  64 E7        30.24R
ST GEORGE      CLOUDY    64  55  72 NE12G18   30.13R THUNDER
KANAB          CLOUDY    61  48  63 NW22G28   30.24R

$$

REGIONAL REPORTS     COLORADO/ARIZONA

CITY           SKY/WX    TMP DP  RH WIND       PRES   REMARKS
CRAIG, CO      CLOUDY    60  49  66 N5        30.26R
GRAND JUNCTION RAIN      60  56  86 S13       30.25R
RIFLE          CLOUDY    64  54  69 W9        30.23R
MONTROSE       LGT RAIN  60  54  80 S5        30.32R
CORTEZ         LGT RAIN  56  55  97 E7        30.34S
PAGE, AZ       MOCLDY    67  55  65 NE6       30.18R
GRAND CANYON     N/A    N/A N/A N/A MISG        N/A
KINGMAN        CLEAR     71  60  68 E12       30.05R
FLAGSTAFF      CLEAR     50  48  93 CALM      30.35R

$$

REGIONAL REPORTS    NEVADA/IDAHO/WYOMING

CITY           SKY/WX    TMP DP  RH WIND       PRES   REMARKS
LAS VEGAS, NV  PTCLDY    89  25  10 SW9       29.89R
ELY            PTCLDY    47  43  86 S3        30.25R
ELKO           MOCLDY    63  45  51 NE5       30.18R
POCATELLO, ID  CLEAR     60  51  72 SE5       30.15R
BURLEY         PTCLDY    65  51  60 W7        30.12R
EVANSTON, WY   MOCLDY    54  46  74 N6        30.30R
ROCK SPRINGS   CLOUDY    57  41  55 E8        30.30R

$$


USA.gov is the U.S. government's official web portal to all federal, state and local government web resources and services.